Home   Weather   Sanikiluaq   Past weeks

Flag for Canada Past Weather in Sanikiluaq, Nunavut, Canada — January 2018

Now
34 °F

Clear.


Feels Like: 26 °F
Forecast: 35 / 42 °F
Wind: 10 mph from Southeast

Location: Kuujjuarapik

Current Time: Sep 21, 2018 at 2:04:54 am

Latest Report: Sep 21, 2018 at 1:00 am


Visibility: 9 mi

Pressure: 30.20 "Hg

Humidity: 81%

Dew Point: 28 °F

Location of SanikiluaqLocation

January 2018 Weather in Sanikiluaq — Graph

°F

High & Low Weather Summary for January 2018

 TemperatureHumidityPressure
High18 °F (Jan 10, 8:42 pm)93% (Jan 10, 10:21 pm)30.75 "Hg (Jan 10, 10:21 pm)
Low-33 °F (Jan 4, 2:00 am)62% (Jan 3, 11:00 am)29.41 "Hg (Jan 10, 9:18 pm)
Average-9 °F77%30.07 "Hg
* Reported Jan 1 12:00 am — Jan 31 11:47 pm, Sanikiluaq. Weather by CustomWeather, © 2018

Note: Actual official high and low records may vary slightly from our data, if they occured in-between our weather recording intervals... More about our weather records

Advertising

Sanikiluaq Weather History for January 1, 2018

Scroll right to see more
 ConditionsComfort  
Time TempWeatherWind HumidityBarometerVisibility
12:00 am
Mon, Jan 1
-24 °FClear.7 mph68%30.27 "Hg9 mi
1:00 am-24 °FClear.6 mph68%30.27 "Hg9 mi
1:21 am-24 °FPassing clouds.6 mph68%30.27 "Hg9 mi
2:00 am-26 °FPassing clouds.7 mph75%30.27 "Hg9 mi
2:31 am-26 °FPassing clouds.8 mph75%30.28 "Hg9 mi
3:00 am-26 °FPassing clouds.8 mph75%30.28 "Hg9 mi
3:13 am-26 °FPassing clouds.9 mph75%30.28 "Hg9 mi
4:00 am-26 °FPassing clouds.8 mph67%30.28 "Hg9 mi
4:21 am-26 °FPassing clouds.8 mph67%30.28 "Hg9 mi
5:00 am-26 °FPassing clouds.9 mph67%30.27 "Hg9 mi
6:00 am-26 °FClear.10 mph67%30.27 "Hg9 mi
7:00 am-27 °FClear.10 mph74%30.27 "Hg9 mi
8:07 am-26 °FPassing clouds.8 mph67%30.25 "Hg9 mi
8:24 am-26 °FPassing clouds.9 mph67%30.26 "Hg9 mi
9:00 am-26 °FPassing clouds.12 mph67%30.25 "Hg9 mi
10:00 am-26 °FSunny.9 mph75%30.25 "Hg9 mi
11:00 am-22 °FSunny.8 mph75%30.23 "Hg9 mi
12:00 pm-20 °FSunny.12 mph75%30.19 "Hg9 mi
1:00 pm-18 °FSunny.7 mph75%30.17 "Hg9 mi
2:00 pm-17 °FSunny.9 mph69%30.15 "Hg9 mi
3:00 pm-17 °FSunny.10 mph69%30.14 "Hg9 mi
4:00 pm-17 °FClear.5 mph69%30.11 "Hg9 mi
5:00 pm-18 °FClear.12 mph69%30.10 "Hg9 mi
6:00 pm-18 °FClear.12 mph69%30.09 "Hg9 mi
7:00 pm-18 °FLight snow. Clear.18 mph69%30.03 "Hg3 mi
8:00 pm-18 °FLight snow. Passing clouds.15 mph69%30.01 "Hg7 mi
8:34 pm-18 °FLight snow. Overcast.14 mph69%29.99 "Hg5 mi
9:00 pm-18 °FLight snow. Overcast.16 mph69%29.98 "Hg4 mi
9:22 pm-18 °FLight snow. Overcast.16 mph69%29.97 "Hg6 mi
9:31 pm-18 °FLight snow. Overcast.13 mph69%29.97 "Hg5 mi
10:00 pm-17 °FLight snow. Overcast.15 mph63%29.96 "Hg5 mi
10:05 pm-17 °FLight snow. Overcast.16 mph63%29.95 "Hg6 mi
10:19 pm-17 °FLight snow. Overcast.15 mph63%29.94 "Hg5 mi
10:59 pm-17 °FLight snow. Overcast.16 mph63%29.93 "Hg5 mi
11:00 pm-17 °FLight snow. Overcast.15 mph63%29.92 "Hg5 mi
11:37 pm-17 °FLight snow. Overcast.15 mph63%29.90 "Hg6 mi
Weather by CustomWeather, © 2018

See weather overview